CW9988 Weather Reports


Display with metric or nautical units.
time (UTC)temp
F
wind
direction
speed
MPH
gust
MPH
rain 1hr
in
rain 24hr
in
rain mn
in
humidity
%
barometer
mb
20260506170042 48 284 9.0 20.0 0.00 0.00 0.00 58 1015.0
20260506164543 48 228 8.0 20.0 0.00 0.00 0.00 58 1014.9
20260506163040 48 275 11.0 23.0 0.00 0.00 0.00 57 1014.9
20260506161538 49 292 9.0 20.0 0.00 0.00 0.00 56 1014.9
20260506160037 50 291 9.0 22.0 0.00 0.00 0.00 53 1014.6
20260506154544 50 277 11.0 23.0 0.00 0.00 0.00 53 1014.9
20260506153059 50 266 13.0 22.0 0.00 0.00 0.00 51 1014.8
20260506151544 51 203 12.0 20.0 0.00 0.00 0.00 51 1014.9
20260506150046 52 277 10.0 19.0 0.00 0.00 0.00 54 1014.9
20260506144538 51 278 11.0 20.0 0.00 0.00 0.00 57 1015.0
20260506143040 52 281 8.0 20.0 0.00 0.00 0.00 55 1015.3
20260506141537 51 282 10.0 19.0 0.00 0.00 0.00 55 1015.2
20260506140039 51 0 7.0 22.0 0.00 0.00 0.00 57 1015.0
20260506134538 50 290 7.0 18.0 0.00 0.00 0.00 56 1015.1
20260506133037 50 278 7.0 21.0 0.00 0.00 0.00 56 1015.3
20260506131539 50 283 10.0 23.0 0.00 0.00 0.00 57 1015.4
20260506130042 51 257 10.0 20.0 0.00 0.00 0.00 55 1015.5
20260506124540 51 261 9.0 20.0 0.00 0.00 0.00 55 1015.3
20260506123039 51 270 10.0 21.0 0.00 0.00 0.00 53 1015.2
20260506121538 51 294 3.0 18.0 0.00 0.00 0.00 52 1015.4
20260506120044 52 298 8.0 17.0 0.00 0.00 0.00 52 1015.6
20260506114543 52 275 10.0 18.0 0.00 0.00 0.00 52 1015.6
20260506113043 52 278 8.0 16.0 0.00 0.00 0.00 52 1015.3
20260506111539 49 277 8.0 18.0 0.00 0.00 0.00 58 1015.4
20260506110038 48 280 10.0 16.0 0.00 0.00 0.00 59 1015.6
20260506104536 49 276 9.0 18.0 0.00 0.00 0.00 61 1015.5
20260506103052 50 286 9.0 17.0 0.00 0.00 0.00 60 1015.5
20260506101541 49 267 5.0 12.0 0.00 0.00 0.00 59 1015.3
20260506100039 49 281 10.0 17.0 0.00 0.00 0.00 60 1015.5
20260506094540 50 0 0.0 12.0 0.00 0.00 0.00 57 1015.4
20260506093037 47 0 0.0 10.0 0.00 0.00 0.00 60 1015.6
20260506091536 49 0 3.0 14.0 0.00 0.00 0.00 59 1015.5
20260506090041 50 0 6.0 13.0 0.00 0.00 0.00 58 1015.4
20260506084546 52 0 0.0 11.0 0.00 0.00 0.00 52 1015.3
20260506083040 53 274 0.0 14.0 0.00 0.00 0.00 52 1015.2
20260506081540 50 275 2.0 10.0 0.00 0.00 0.00 58 1015.2
20260506073041 46 0 2.0 9.0 0.00 0.00 0.00 63 1015.2
20260506071542 45 0 0.0 4.0 0.00 0.00 0.00 63 1015.1
20260506061536 38 0 0.0 0.0 0.00 0.00 0.00 90 1015.2
20260506044542 33 0 0.0 0.0 0.00 0.00 0.00 91 1014.7
20260506043040 32 0 0.0 0.0 0.00 0.00 0.00 92 1014.7
20260506041538 30 0 0.0 0.0 0.00 0.00 0.00 92 1014.6
20260506040040 30 0 0.0 0.0 0.00 0.00 0.00 91 1014.6
20260506034545 30 0 0.0 0.0 0.00 0.00 0.00 91 1014.6
20260506033042 31 0 0.0 0.0 0.00 0.00 0.00 91 1014.7
20260506031543 31 0 0.0 0.0 0.00 0.00 0.00 91 1014.6
20260506030043 31 0 0.0 0.0 0.00 0.00 0.00 91 1014.6
20260506024557 31 0 0.0 0.0 0.00 0.00 0.00 90 1014.6
20260506023037 31 0 0.0 0.0 0.00 0.00 0.00 90 1014.5
20260506021544 32 0 0.0 0.0 0.00 0.00 0.00 89 1014.8
20260506020040 32 0 0.0 0.0 0.00 0.00 0.00 89 1014.7
20260506014546 32 0 0.0 0.0 0.00 0.00 0.00 89 1014.7
20260506013058 32 0 0.0 0.0 0.00 0.00 0.00 89 1014.7
20260506011556 32 0 0.0 0.0 0.00 0.00 0.00 88 1014.7
20260506010038 32 0 0.0 0.0 0.00 0.00 0.00 88 1014.7
20260506004543 33 0 0.0 0.0 0.00 0.00 0.00 86 1014.6
20260506003041 35 0 0.0 0.0 0.00 0.00 0.00 83 1014.6
20260506001544 36 0 0.0 0.0 0.00 0.00 0.00 83 1014.8
20260506000040 37 0 0.0 0.0 0.00 0.00 0.00 81 1014.7
20260505234539 36 0 0.0 0.0 0.00 0.00 0.00 83 1014.8
20260505233036 36 0 0.0 0.0 0.00 0.00 0.00 82 1014.7
20260505231538 36 0 0.0 0.0 0.00 0.00 0.00 83 1014.8
20260505230054 36 0 0.0 0.0 0.00 0.00 0.00 83 1014.7
20260505224540 36 0 0.0 0.0 0.00 0.00 0.00 83 1014.8
20260505223053 36 0 0.0 0.0 0.00 0.00 0.00 83 1014.7
20260505221539 36 0 0.0 0.0 0.00 0.00 0.00 82 1014.7
20260505220042 37 0 0.0 0.0 0.00 0.00 0.00 81 1014.7
20260505214536 37 0 0.0 0.0 0.00 0.00 0.00 80 1014.7
20260505213053 38 0 0.0 0.0 0.00 0.00 0.00 80 1014.7
20260505211542 38 0 0.0 0.0 0.00 0.00 0.00 78 1014.9
20260505210040 38 0 0.0 0.0 0.00 0.00 0.00 77 1014.9
20260505204540 39 0 0.0 0.0 0.00 0.00 0.00 74 1014.9
20260505203050 40 0 0.0 0.0 0.00 0.00 0.00 73 1014.8
20260505201542 41 0 0.0 4.0 0.00 0.00 0.00 71 1014.8
20260505200039 42 0 0.0 11.0 0.00 0.00 0.00 70 1014.7
20260505194540 42 0 2.0 14.0 0.00 0.00 0.00 69 1014.7
20260505193037 43 0 5.0 12.0 0.00 0.00 0.00 68 1014.7
20260505191544 43 277 3.0 9.0 0.00 0.00 0.00 69 1014.6
20260505190040 43 273 2.0 13.0 0.00 0.00 0.00 72 1014.6
20260505184540 43 0 5.0 18.0 0.00 0.00 0.00 71 1014.5
20260505183038 44 281 6.0 17.0 0.00 0.00 0.00 67 1014.2
20260505181539 45 249 6.0 15.0 0.00 0.00 0.00 69 1014.2
20260505180038 46 271 7.0 17.0 0.00 0.00 0.00 68 1014.2
20260505174548 47 286 8.0 15.0 0.00 0.00 0.00 67 1014.2
20260505173046 47 267 10.0 17.0 0.00 0.00 0.00 66 1014.2
20260505171539 46 277 9.0 19.0 0.00 0.00 0.00 61 1014.4